| time (UTC) | temp F | wind direction | speed MPH | gust MPH | rain 1hr in | rain 24hr in | rain mn in | humidity % | barometer mb |
| 20260505225440 | 75 | 307 | 4.0 | 5.0 | 0.00 | 0.00 | 0.00 | 52 | 1006.2 |
| 20260505224936 | 75 | 284 | 6.0 | 7.0 | 0.00 | 0.00 | 0.00 | 52 | 1006.3 |
| 20260505224433 | 75 | 277 | 3.0 | 7.0 | 0.00 | 0.00 | 0.00 | 51 | 1006.1 |
| 20260505223930 | 75 | 306 | 6.0 | 10.0 | 0.00 | 0.00 | 0.00 | 51 | 1006.1 |
| 20260505223427 | 75 | 291 | 3.0 | 5.0 | 0.00 | 0.00 | 0.00 | 51 | 1006.3 |
| 20260505222923 | 76 | 300 | 7.0 | 10.0 | 0.00 | 0.00 | 0.00 | 50 | 1006.4 |
| 20260505222419 | 76 | 316 | 6.0 | 7.0 | 0.00 | 0.00 | 0.00 | 49 | 1006.4 |
| 20260505221915 | 77 | 289 | 6.0 | 10.0 | 0.00 | 0.00 | 0.00 | 47 | 1006.1 |
| 20260505221413 | 77 | 279 | 8.0 | 12.0 | 0.00 | 0.00 | 0.00 | 46 | 1005.9 |
| 20260505220910 | 77 | 318 | 7.0 | 17.0 | 0.00 | 0.00 | 0.00 | 45 | 1006.1 |
| 20260505220407 | 78 | 278 | 15.0 | 19.0 | 0.00 | 0.00 | 0.00 | 43 | 1005.9 |
| 20260505215905 | 79 | 323 | 6.0 | 10.0 | 0.00 | 0.00 | 0.00 | 41 | 1006.0 |
| 20260505215402 | 79 | 309 | 4.0 | 7.0 | 0.00 | 0.00 | 0.00 | 41 | 1005.8 |
| 20260505214900 | 79 | 311 | 4.0 | 7.0 | 0.00 | 0.00 | 0.00 | 40 | 1005.7 |
| 20260505214357 | 79 | 315 | 4.0 | 5.0 | 0.00 | 0.00 | 0.00 | 39 | 1005.6 |
| 20260505213854 | 80 | 295 | 6.0 | 7.0 | 0.00 | 0.00 | 0.00 | 39 | 1005.5 |
| 20260505213352 | 80 | 262 | 6.0 | 7.0 | 0.00 | 0.00 | 0.00 | 40 | 1005.7 |
| 20260505212848 | 80 | 300 | 4.0 | 7.0 | 0.00 | 0.00 | 0.00 | 40 | 1005.5 |
| 20260505212345 | 80 | 297 | 2.0 | 7.0 | 0.00 | 0.00 | 0.00 | 40 | 1005.3 |
| 20260505211841 | 80 | 290 | 6.0 | 7.0 | 0.00 | 0.00 | 0.00 | 40 | 1005.3 |
| 20260505211339 | 80 | 308 | 3.0 | 5.0 | 0.00 | 0.00 | 0.00 | 41 | 1005.2 |
| 20260505210835 | 81 | 266 | 8.0 | 15.0 | 0.00 | 0.00 | 0.00 | 39 | 1005.3 |
| 20260505210332 | 81 | 290 | 7.0 | 12.0 | 0.00 | 0.00 | 0.00 | 39 | 1005.1 |
| 20260505205829 | 81 | 282 | 4.0 | 7.0 | 0.00 | 0.00 | 0.00 | 39 | 1005.2 |
| 20260505205328 | 81 | 284 | 4.0 | 12.0 | 0.00 | 0.00 | 0.00 | 39 | 1005.3 |
| 20260505204824 | 81 | 256 | 7.0 | 12.0 | 0.00 | 0.00 | 0.00 | 38 | 1005.5 |
| 20260505204322 | 81 | 340 | 4.0 | 7.0 | 0.00 | 0.00 | 0.00 | 38 | 1005.4 |
| 20260505203819 | 81 | 301 | 7.0 | 10.0 | 0.00 | 0.00 | 0.00 | 37 | 1005.3 |
| 20260505203315 | 81 | 274 | 3.0 | 12.0 | 0.00 | 0.00 | 0.00 | 39 | 1005.4 |
| 20260505202812 | 80 | 281 | 6.0 | 15.0 | 0.00 | 0.00 | 0.00 | 38 | 1005.5 |
| 20260505202308 | 81 | 289 | 7.0 | 12.0 | 0.00 | 0.00 | 0.00 | 37 | 1005.5 |
| 20260505201805 | 81 | 239 | 6.0 | 10.0 | 0.00 | 0.00 | 0.00 | 37 | 1005.5 |
| 20260505201302 | 81 | 254 | 9.0 | 15.0 | 0.00 | 0.00 | 0.00 | 37 | 1005.4 |
| 20260505200800 | 81 | 260 | 13.0 | 19.0 | 0.00 | 0.00 | 0.00 | 37 | 1005.3 |
| 20260505200257 | 81 | 233 | 9.0 | 15.0 | 0.00 | 0.00 | 0.00 | 38 | 1005.2 |
| 20260505195752 | 82 | 272 | 5.0 | 10.0 | 0.00 | 0.00 | 0.00 | 37 | 1005.3 |
| 20260505195250 | 81 | 307 | 2.0 | 7.0 | 0.00 | 0.00 | 0.00 | 37 | 1005.3 |
| 20260505194747 | 82 | 255 | 9.0 | 12.0 | 0.00 | 0.00 | 0.00 | 36 | 1005.5 |
| 20260505194244 | 83 | 227 | 14.0 | 19.0 | 0.00 | 0.00 | 0.00 | 37 | 1005.4 |
| 20260505193739 | 82 | 336 | 5.0 | 12.0 | 0.00 | 0.00 | 0.00 | 41 | 1005.4 |
| 20260505193237 | 82 | 290 | 5.0 | 12.0 | 0.00 | 0.00 | 0.00 | 41 | 1005.2 |
| 20260505192735 | 82 | 296 | 6.0 | 19.0 | 0.00 | 0.00 | 0.00 | 40 | 1005.5 |
| 20260505192233 | 82 | 285 | 6.0 | 7.0 | 0.00 | 0.00 | 0.00 | 39 | 1005.4 |
| 20260505191731 | 83 | 224 | 21.0 | 34.0 | 0.00 | 0.00 | 0.00 | 37 | 1005.3 |
| 20260505191229 | 84 | 290 | 13.0 | 27.0 | 0.00 | 0.00 | 0.00 | 36 | 1005.4 |
| 20260505190725 | 83 | 218 | 22.0 | 34.0 | 0.00 | 0.00 | 0.00 | 37 | 1005.3 |
| 20260505190225 | 84 | 238 | 7.0 | 19.0 | 0.00 | 0.00 | 0.00 | 41 | 1005.4 |
| 20260505185721 | 85 | 11 | 9.0 | 17.0 | 0.00 | 0.00 | 0.00 | 40 | 1005.7 |
| 20260505185218 | 84 | 128 | 8.0 | 12.0 | 0.00 | 0.00 | 0.00 | 39 | 1005.5 |
| 20260505184714 | 84 | 227 | 13.0 | 34.0 | 0.00 | 0.00 | 0.00 | 36 | 1005.7 |
| 20260505184212 | 84 | 230 | 3.0 | 10.0 | 0.00 | 0.00 | 0.00 | 42 | 1005.9 |
| 20260505183708 | 83 | 332 | 10.0 | 15.0 | 0.00 | 0.00 | 0.00 | 42 | 1005.9 |
| 20260505183206 | 83 | 318 | 7.0 | 15.0 | 0.00 | 0.00 | 0.00 | 43 | 1005.8 |
| 20260505182701 | 84 | 293 | 8.0 | 17.0 | 0.00 | 0.00 | 0.00 | 41 | 1005.9 |
| 20260505182159 | 83 | 273 | 10.0 | 19.0 | 0.00 | 0.00 | 0.00 | 40 | 1005.9 |
| 20260505181655 | 82 | 325 | 12.0 | 17.0 | 0.00 | 0.00 | 0.00 | 42 | 1006.1 |
| 20260505181153 | 83 | 191 | 6.0 | 10.0 | 0.00 | 0.00 | 0.00 | 41 | 1006.3 |
| 20260505180649 | 82 | 296 | 7.0 | 19.0 | 0.00 | 0.00 | 0.00 | 41 | 1006.3 |
| 20260505180147 | 82 | 169 | 10.0 | 17.0 | 0.00 | 0.00 | 0.00 | 41 | 1006.4 |
| 20260505175642 | 81 | 304 | 15.0 | 19.0 | 0.00 | 0.00 | 0.00 | 41 | 1006.7 |
| 20260505175139 | 81 | 299 | 5.0 | 19.0 | 0.00 | 0.00 | 0.00 | 42 | 1006.6 |
| 20260505174636 | 81 | 291 | 8.0 | 15.0 | 0.00 | 0.00 | 0.00 | 42 | 1006.5 |
| 20260505174132 | 81 | 288 | 10.0 | 34.0 | 0.00 | 0.00 | 0.00 | 40 | 1006.6 |
| 20260505173623 | 81 | 210 | 14.0 | 27.0 | 0.00 | 0.00 | 0.00 | 43 | 1006.7 |
| 20260505173120 | 81 | 231 | 12.0 | 24.0 | 0.00 | 0.00 | 0.00 | 41 | 1006.6 |
| 20260505172618 | 80 | 294 | 7.0 | 17.0 | 0.00 | 0.00 | 0.00 | 44 | 1006.8 |
| 20260505172114 | 80 | 268 | 9.0 | 12.0 | 0.00 | 0.00 | 0.00 | 43 | 1006.6 |
| 20260505171609 | 80 | 256 | 7.0 | 19.0 | 0.00 | 0.00 | 0.00 | 44 | 1006.7 |
| 20260505171106 | 82 | 264 | 14.0 | 17.0 | 0.00 | 0.00 | 0.00 | 42 | 1006.7 |
| 20260505170603 | 82 | 273 | 8.0 | 19.0 | 0.00 | 0.00 | 0.00 | 41 | 1006.8 |
| 20260505170100 | 81 | 288 | 11.0 | 19.0 | 0.00 | 0.00 | 0.00 | 43 | 1007.0 |
| 20260505165554 | 81 | 226 | 14.0 | 27.0 | 0.00 | 0.00 | 0.00 | 44 | 1007.1 |
| 20260505165051 | 82 | 269 | 5.0 | 12.0 | 0.00 | 0.00 | 0.00 | 45 | 1006.9 |
| 20260505164547 | 80 | 246 | 10.0 | 17.0 | 0.00 | 0.00 | 0.00 | 43 | 1007.2 |
| 20260505164045 | 81 | 247 | 10.0 | 17.0 | 0.00 | 0.00 | 0.00 | 43 | 1007.0 |
| 20260505163543 | 80 | 272 | 8.0 | 17.0 | 0.00 | 0.00 | 0.00 | 44 | 1007.1 |
| 20260505163039 | 80 | 288 | 7.0 | 17.0 | 0.00 | 0.00 | 0.00 | 44 | 1007.4 |
| 20260505162538 | 80 | 270 | 10.0 | 22.0 | 0.00 | 0.00 | 0.00 | 45 | 1007.2 |
| 20260505162035 | 80 | 288 | 11.0 | 15.0 | 0.00 | 0.00 | 0.00 | 45 | 1007.6 |
| 20260505161532 | 79 | 238 | 8.0 | 17.0 | 0.00 | 0.00 | 0.00 | 45 | 1007.6 |
| 20260505161029 | 80 | 295 | 8.0 | 17.0 | 0.00 | 0.00 | 0.00 | 45 | 1007.6 |
| 20260505160527 | 79 | 273 | 19.0 | 29.0 | 0.00 | 0.00 | 0.00 | 44 | 1007.8 |
| 20260505153002 | 78 | 268 | 14.0 | 24.0 | 0.00 | 0.00 | 0.00 | 48 | 1008.2 |
| 20260505152455 | 78 | 273 | 7.0 | 17.0 | 0.00 | 0.00 | 0.00 | 50 | 1007.9 |
| 20260505151950 | 78 | 211 | 12.0 | 17.0 | 0.00 | 0.00 | 0.00 | 49 | 1008.2 |
| 20260505151445 | 77 | 236 | 9.0 | 12.0 | 0.00 | 0.00 | 0.00 | 49 | 1008.2 |
| 20260505150942 | 77 | 329 | 6.0 | 10.0 | 0.00 | 0.00 | 0.00 | 51 | 1008.2 |
| 20260505150434 | 76 | 230 | 13.0 | 17.0 | 0.00 | 0.00 | 0.00 | 50 | 1008.2 |
| 20260505140404 | 73 | 280 | 4.0 | 12.0 | 0.00 | 0.00 | 0.00 | 58 | 1008.1 |
| 20260505124817 | 67 | 268 | 3.0 | 5.0 | 0.00 | 0.00 | 0.00 | 64 | 1008.4 |
| 20260505124314 | 67 | 275 | 3.0 | 7.0 | 0.00 | 0.00 | 0.00 | 65 | 1008.6 |
| 20260505123810 | 66 | 330 | 2.0 | 5.0 | 0.00 | 0.00 | 0.00 | 66 | 1008.7 |
| 20260505123307 | 65 | 310 | 3.0 | 7.0 | 0.00 | 0.00 | 0.00 | 67 | 1008.6 |
| 20260505122803 | 65 | 273 | 4.0 | 7.0 | 0.00 | 0.00 | 0.00 | 69 | 1008.7 |
| 20260505122301 | 64 | 168 | 2.0 | 7.0 | 0.00 | 0.00 | 0.00 | 70 | 1008.7 |
| 20260505121757 | 64 | 300 | 5.0 | 7.0 | 0.00 | 0.00 | 0.00 | 71 | 1008.9 |
| 20260505121254 | 64 | 239 | 3.0 | 5.0 | 0.00 | 0.00 | 0.00 | 72 | 1008.8 |
| 20260505120750 | 64 | 202 | 4.0 | 7.0 | 0.00 | 0.00 | 0.00 | 71 | 1008.8 |
| 20260505120246 | 63 | 275 | 1.0 | 7.0 | 0.00 | 0.00 | 0.00 | 72 | 1008.8 |
| 20260505115744 | 62 | 270 | 4.0 | 5.0 | 0.00 | 0.00 | 0.00 | 73 | 1008.8 |
| 20260505115242 | 62 | 303 | 2.0 | 7.0 | 0.00 | 0.00 | 0.00 | 73 | 1008.6 |
| 20260505114740 | 62 | 151 | 4.0 | 10.0 | 0.00 | 0.00 | 0.00 | 73 | 1008.8 |
| 20260505114236 | 62 | 302 | 1.0 | 7.0 | 0.00 | 0.00 | 0.00 | 74 | 1008.6 |
| 20260505113733 | 62 | 321 | 1.0 | 5.0 | 0.00 | 0.00 | 0.00 | 74 | 1008.5 |
| 20260505113230 | 62 | 307 | 5.0 | 7.0 | 0.00 | 0.00 | 0.00 | 74 | 1008.4 |
| 20260505112726 | 61 | 240 | 0.0 | 7.0 | 0.00 | 0.00 | 0.00 | 74 | 1008.5 |
| 20260505112224 | 61 | 153 | 4.0 | 5.0 | 0.00 | 0.00 | 0.00 | 74 | 1008.5 |
| 20260505111723 | 61 | 294 | 2.0 | 5.0 | 0.00 | 0.00 | 0.00 | 74 | 1008.5 |
| 20260505111220 | 61 | 314 | 2.0 | 7.0 | 0.00 | 0.00 | 0.00 | 73 | 1008.4 |
| 20260505110715 | 61 | 290 | 4.0 | 5.0 | 0.00 | 0.00 | 0.00 | 73 | 1008.2 |
| 20260505110213 | 61 | 299 | 2.0 | 5.0 | 0.00 | 0.00 | 0.00 | 73 | 1008.4 |
| 20260505102148 | 60 | 303 | 2.0 | 5.0 | 0.00 | 0.00 | 0.00 | 73 | 1008.3 |
| 20260505101647 | 60 | 284 | 2.0 | 2.0 | 0.00 | 0.00 | 0.00 | 74 | 1008.1 |
| 20260505101143 | 60 | 309 | 2.0 | 5.0 | 0.00 | 0.00 | 0.00 | 73 | 1008.2 |
| 20260505100639 | 61 | 244 | 3.0 | 7.0 | 0.00 | 0.00 | 0.00 | 72 | 1007.9 |
| 20260505100137 | 61 | 300 | 4.0 | 7.0 | 0.00 | 0.00 | 0.00 | 72 | 1008.3 |
| 20260505095632 | 61 | 311 | 2.0 | 5.0 | 0.00 | 0.00 | 0.00 | 72 | 1008.1 |
| 20260505095130 | 61 | 302 | 3.0 | 7.0 | 0.00 | 0.00 | 0.00 | 72 | 1008.2 |
| 20260505094626 | 61 | 296 | 5.0 | 7.0 | 0.00 | 0.00 | 0.00 | 72 | 1007.7 |
| 20260505094122 | 60 | 293 | 2.0 | 2.0 | 0.00 | 0.00 | 0.00 | 73 | 1007.9 |
| 20260505093619 | 60 | 326 | 0.0 | 0.0 | 0.00 | 0.00 | 0.00 | 73 | 1007.8 |
| 20260505093116 | 60 | 312 | 3.0 | 7.0 | 0.00 | 0.00 | 0.00 | 72 | 1007.6 |
| 20260505092613 | 61 | 282 | 2.0 | 5.0 | 0.00 | 0.00 | 0.00 | 72 | 1007.8 |
| 20260505092112 | 61 | 314 | 2.0 | 7.0 | 0.00 | 0.00 | 0.00 | 72 | 1007.4 |
| 20260505091608 | 61 | 281 | 3.0 | 5.0 | 0.00 | 0.00 | 0.00 | 72 | 1007.5 |
| 20260505091106 | 61 | 313 | 2.0 | 10.0 | 0.00 | 0.00 | 0.00 | 71 | 1007.5 |
| 20260505090604 | 61 | 174 | 3.0 | 10.0 | 0.00 | 0.00 | 0.00 | 71 | 1007.4 |
| 20260505085559 | 61 | 271 | 0.0 | 2.0 | 0.00 | 0.00 | 0.00 | 72 | 1007.2 |
| 20260505085057 | 61 | 283 | 4.0 | 5.0 | 0.00 | 0.00 | 0.00 | 71 | 1007.5 |
| 20260505084555 | 61 | 289 | 2.0 | 5.0 | 0.00 | 0.00 | 0.00 | 71 | 1007.6 |
| 20260505084053 | 61 | 314 | 0.0 | 0.0 | 0.00 | 0.00 | 0.00 | 71 | 1007.7 |
| 20260505083549 | 61 | 311 | 2.0 | 5.0 | 0.00 | 0.00 | 0.00 | 71 | 1007.7 |
| 20260505083046 | 61 | 317 | 0.0 | 2.0 | 0.00 | 0.00 | 0.00 | 70 | 1007.6 |
| 20260505082542 | 61 | 305 | 2.0 | 5.0 | 0.00 | 0.00 | 0.00 | 70 | 1007.7 |
| 20260505082039 | 62 | 322 | 0.0 | 2.0 | 0.00 | 0.00 | 0.00 | 69 | 1007.4 |
| 20260505081535 | 61 | 311 | 0.0 | 5.0 | 0.00 | 0.00 | 0.00 | 69 | 1007.6 |
| 20260505081033 | 61 | 308 | 2.0 | 2.0 | 0.00 | 0.00 | 0.00 | 70 | 1007.5 |
| 20260505080529 | 61 | 304 | 0.0 | 2.0 | 0.00 | 0.00 | 0.00 | 70 | 1007.5 |
| 20260505080026 | 61 | 295 | 0.0 | 2.0 | 0.00 | 0.00 | 0.00 | 69 | 1007.2 |
| 20260505075522 | 62 | 292 | 0.0 | 5.0 | 0.00 | 0.00 | 0.00 | 68 | 1007.3 |
| 20260505075019 | 62 | 293 | 1.0 | 5.0 | 0.00 | 0.00 | 0.00 | 68 | 1007.3 |
| 20260505074516 | 62 | 278 | 0.0 | 2.0 | 0.00 | 0.00 | 0.00 | 68 | 1007.4 |
| 20260505074013 | 62 | 285 | 0.0 | 0.0 | 0.00 | 0.00 | 0.00 | 68 | 1007.3 |
| 20260505073510 | 62 | 275 | 3.0 | 5.0 | 0.00 | 0.00 | 0.00 | 68 | 1007.4 |
| 20260505073009 | 62 | 289 | 2.0 | 2.0 | 0.00 | 0.00 | 0.00 | 68 | 1007.1 |
| 20260505072504 | 62 | 315 | 0.0 | 2.0 | 0.00 | 0.00 | 0.00 | 67 | 1007.2 |
| 20260505072000 | 62 | 304 | 2.0 | 2.0 | 0.00 | 0.00 | 0.00 | 67 | 1007.0 |
| 20260505071456 | 62 | 322 | 2.0 | 2.0 | 0.00 | 0.00 | 0.00 | 67 | 1006.9 |
| 20260505070954 | 60 | 286 | 2.0 | 5.0 | 0.00 | 0.00 | 0.00 | 70 | 1007.2 |
| 20260505070450 | 61 | 297 | 0.0 | 0.0 | 0.00 | 0.00 | 0.00 | 69 | 1007.2 |
| 20260505065946 | 61 | 293 | 0.0 | 2.0 | 0.00 | 0.00 | 0.00 | 69 | 1007.1 |
| 20260505065443 | 61 | 293 | 0.0 | 2.0 | 0.00 | 0.00 | 0.00 | 68 | 1007.2 |
| 20260505064939 | 61 | 291 | 0.0 | 2.0 | 0.00 | 0.00 | 0.00 | 68 | 1007.2 |
| 20260505064436 | 61 | 185 | 1.0 | 2.0 | 0.00 | 0.00 | 0.00 | 68 | 1007.2 |
| 20260505063935 | 60 | 309 | 0.0 | 2.0 | 0.00 | 0.00 | 0.00 | 69 | 1007.2 |
| 20260505063431 | 61 | 309 | 0.0 | 0.0 | 0.00 | 0.00 | 0.00 | 68 | 1007.2 |
| 20260505062928 | 61 | 308 | 0.0 | 0.0 | 0.00 | 0.00 | 0.00 | 67 | 1007.1 |
| 20260505062425 | 61 | 308 | 0.0 | 0.0 | 0.00 | 0.00 | 0.00 | 67 | 1007.2 |
| 20260505061921 | 61 | 307 | 0.0 | 0.0 | 0.00 | 0.00 | 0.00 | 66 | 1007.4 |
| 20260505061420 | 61 | 311 | 0.0 | 0.0 | 0.00 | 0.00 | 0.00 | 66 | 1007.4 |
| 20260505060917 | 62 | 314 | 0.0 | 0.0 | 0.00 | 0.00 | 0.00 | 66 | 1007.5 |
| 20260505060414 | 62 | 315 | 0.0 | 0.0 | 0.00 | 0.00 | 0.00 | 65 | 1007.4 |
| 20260505055910 | 62 | 315 | 2.0 | 2.0 | 0.00 | 0.00 | 0.00 | 64 | 1007.5 |
| 20260505055407 | 63 | 315 | 0.0 | 2.0 | 0.00 | 0.00 | 0.00 | 63 | 1007.4 |
| 20260505054903 | 63 | 292 | 1.0 | 2.0 | 0.00 | 0.00 | 0.00 | 62 | 1007.4 |
| 20260505054400 | 62 | 307 | 0.0 | 0.0 | 0.00 | 0.00 | 0.00 | 63 | 1007.5 |
| 20260505053859 | 63 | 308 | 0.0 | 0.0 | 0.00 | 0.00 | 0.00 | 63 | 1007.7 |
| 20260505053356 | 62 | 308 | 0.0 | 2.0 | 0.00 | 0.00 | 0.00 | 63 | 1007.6 |
| 20260505052852 | 62 | 308 | 0.0 | 2.0 | 0.00 | 0.00 | 0.00 | 63 | 1007.6 |
| 20260505052349 | 62 | 309 | 0.0 | 0.0 | 0.00 | 0.00 | 0.00 | 62 | 1007.7 |
| 20260505051846 | 62 | 307 | 0.0 | 2.0 | 0.00 | 0.00 | 0.00 | 62 | 1007.7 |
| 20260505051343 | 62 | 307 | 0.0 | 0.0 | 0.00 | 0.00 | 0.00 | 62 | 1007.6 |
| 20260505050841 | 62 | 307 | 0.0 | 2.0 | 0.00 | 0.00 | 0.00 | 63 | 1007.7 |
| 20260505050340 | 62 | 305 | 0.0 | 2.0 | 0.00 | 0.00 | 0.00 | 63 | 1007.9 |
| 20260505041307 | 62 | 302 | 0.0 | 0.0 | 0.00 | 0.00 | 0.00 | 60 | 1007.3 |
| 20260505040804 | 63 | 302 | 0.0 | 0.0 | 0.00 | 0.00 | 0.00 | 58 | 1007.3 |
| 20260505040302 | 64 | 301 | 0.0 | 0.0 | 0.00 | 0.00 | 0.00 | 58 | 1007.3 |
| 20260505035758 | 65 | 297 | 2.0 | 5.0 | 0.00 | 0.00 | 0.00 | 56 | 1007.3 |
| 20260505035254 | 65 | 289 | 3.0 | 7.0 | 0.00 | 0.00 | 0.00 | 55 | 1007.0 |
| 20260505034751 | 65 | 288 | 1.0 | 2.0 | 0.00 | 0.00 | 0.00 | 56 | 1007.1 |
| 20260505034248 | 65 | 298 | 0.0 | 2.0 | 0.00 | 0.00 | 0.00 | 56 | 1007.0 |
| 20260505033744 | 65 | 282 | 2.0 | 7.0 | 0.00 | 0.00 | 0.00 | 55 | 1007.1 |
| 20260505033242 | 65 | 314 | 0.0 | 5.0 | 0.00 | 0.00 | 0.00 | 56 | 1006.8 |
| 20260505032740 | 65 | 290 | 0.0 | 2.0 | 0.00 | 0.00 | 0.00 | 56 | 1006.9 |
| 20260505032236 | 64 | 323 | 0.0 | 2.0 | 0.00 | 0.00 | 0.00 | 57 | 1006.9 |
| 20260505031733 | 64 | 319 | 0.0 | 2.0 | 0.00 | 0.00 | 0.00 | 56 | 1007.0 |
| 20260505031229 | 65 | 327 | 0.0 | 0.0 | 0.00 | 0.00 | 0.00 | 55 | 1007.0 |
| 20260505030727 | 65 | 303 | 2.0 | 2.0 | 0.00 | 0.00 | 0.00 | 54 | 1007.0 |
| 20260505030223 | 66 | 250 | 1.0 | 2.0 | 0.00 | 0.00 | 0.00 | 54 | 1006.9 |
| 20260505025718 | 65 | 284 | 2.0 | 5.0 | 0.00 | 0.00 | 0.00 | 54 | 1007.1 |
| 20260505025217 | 65 | 300 | 1.0 | 5.0 | 0.00 | 0.00 | 0.00 | 54 | 1007.0 |
| 20260505024715 | 65 | 323 | 1.0 | 5.0 | 0.00 | 0.00 | 0.00 | 54 | 1007.2 |
| 20260505024212 | 66 | 326 | 0.0 | 2.0 | 0.00 | 0.00 | 0.00 | 54 | 1007.1 |
| 20260505023709 | 66 | 322 | 0.0 | 2.0 | 0.00 | 0.00 | 0.00 | 53 | 1007.0 |
| 20260505023206 | 67 | 324 | 1.0 | 7.0 | 0.00 | 0.00 | 0.00 | 52 | 1007.2 |
| 20260505022704 | 67 | 308 | 2.0 | 5.0 | 0.00 | 0.00 | 0.00 | 52 | 1007.2 |
| 20260505022200 | 67 | 322 | 0.0 | 2.0 | 0.00 | 0.00 | 0.00 | 52 | 1007.0 |
| 20260505021657 | 67 | 318 | 1.0 | 2.0 | 0.00 | 0.00 | 0.00 | 52 | 1007.1 |
| 20260505021154 | 67 | 319 | 1.0 | 7.0 | 0.00 | 0.00 | 0.00 | 52 | 1007.2 |
| 20260505020649 | 67 | 310 | 2.0 | 5.0 | 0.00 | 0.00 | 0.00 | 53 | 1007.3 |
| 20260505020145 | 67 | 317 | 1.0 | 5.0 | 0.00 | 0.00 | 0.00 | 52 | 1007.4 |
| 20260505015643 | 67 | 345 | 3.0 | 5.0 | 0.00 | 0.00 | 0.00 | 52 | 1007.2 |
| 20260505015139 | 67 | 324 | 3.0 | 5.0 | 0.00 | 0.00 | 0.00 | 52 | 1007.1 |
| 20260505014636 | 67 | 315 | 2.0 | 2.0 | 0.00 | 0.00 | 0.00 | 52 | 1007.2 |
| 20260505014133 | 67 | 326 | 2.0 | 7.0 | 0.00 | 0.00 | 0.00 | 52 | 1007.2 |
| 20260505013631 | 67 | 323 | 0.0 | 7.0 | 0.00 | 0.00 | 0.00 | 52 | 1007.1 |
| 20260505013128 | 67 | 289 | 4.0 | 10.0 | 0.00 | 0.00 | 0.00 | 51 | 1007.0 |
| 20260505012626 | 68 | 272 | 2.0 | 7.0 | 0.00 | 0.00 | 0.00 | 51 | 1007.1 |
| 20260505012122 | 68 | 319 | 2.0 | 5.0 | 0.00 | 0.00 | 0.00 | 52 | 1006.9 |
| 20260505011618 | 68 | 255 | 3.0 | 5.0 | 0.00 | 0.00 | 0.00 | 51 | 1007.0 |
| 20260505011116 | 68 | 97 | 2.0 | 5.0 | 0.00 | 0.00 | 0.00 | 51 | 1006.9 |
| 20260505010611 | 68 | 272 | 5.0 | 5.0 | 0.00 | 0.00 | 0.00 | 51 | 1006.7 |
| 20260505010108 | 68 | 282 | 5.0 | 7.0 | 0.00 | 0.00 | 0.00 | 50 | 1006.7 |
| 20260505005604 | 68 | 194 | 5.0 | 10.0 | 0.00 | 0.00 | 0.00 | 51 | 1006.8 |
| 20260505005101 | 69 | 296 | 4.0 | 12.0 | 0.00 | 0.00 | 0.00 | 50 | 1006.7 |
| 20260505004558 | 69 | 300 | 3.0 | 7.0 | 0.00 | 0.00 | 0.00 | 50 | 1006.6 |
| 20260505004055 | 69 | 235 | 2.0 | 7.0 | 0.00 | 0.00 | 0.00 | 50 | 1006.7 |
| 20260505003552 | 69 | 297 | 4.0 | 10.0 | 0.00 | 0.00 | 0.00 | 50 | 1006.6 |
| 20260505003049 | 69 | 197 | 3.0 | 7.0 | 0.00 | 0.00 | 0.00 | 49 | 1006.7 |
| 20260505002549 | 69 | 299 | 6.0 | 7.0 | 0.00 | 0.00 | 0.00 | 49 | 1006.5 |
| 20260505002043 | 70 | 315 | 1.0 | 12.0 | 0.00 | 0.00 | 0.00 | 49 | 1006.5 |
| 20260505001539 | 70 | 254 | 5.0 | 7.0 | 0.00 | 0.00 | 0.00 | 48 | 1006.5 |
| 20260505001037 | 70 | 303 | 3.0 | 10.0 | 0.00 | 0.00 | 0.00 | 48 | 1006.4 |
| 20260505000534 | 70 | 329 | 5.0 | 15.0 | 0.00 | 0.00 | 0.00 | 47 | 1006.3 |
| 20260505000032 | 71 | 186 | 4.0 | 5.0 | 0.00 | 0.00 | 0.00 | 48 | 1006.3 |
| 20260504235528 | 71 | 342 | 4.0 | 7.0 | 0.00 | 0.00 | 0.00 | 46 | 1006.3 |
| 20260504235025 | 71 | 319 | 1.0 | 7.0 | 0.00 | 0.00 | 0.00 | 46 | 1006.2 |
| 20260504234522 | 72 | 153 | 9.0 | 10.0 | 0.00 | 0.00 | 0.00 | 45 | 1006.2 |
| 20260504234019 | 72 | 245 | 9.0 | 12.0 | 0.00 | 0.00 | 0.00 | 44 | 1006.1 |
| 20260504233514 | 72 | 317 | 5.0 | 12.0 | 0.00 | 0.00 | 0.00 | 44 | 1006.0 |
| 20260504233011 | 72 | 79 | 4.0 | 15.0 | 0.00 | 0.00 | 0.00 | 44 | 1006.0 |
| 20260504232508 | 73 | 305 | 7.0 | 12.0 | 0.00 | 0.00 | 0.00 | 43 | 1006.1 |
| 20260504232006 | 73 | 261 | 10.0 | 12.0 | 0.00 | 0.00 | 0.00 | 43 | 1006.2 |
| 20260504231502 | 73 | 284 | 4.0 | 10.0 | 0.00 | 0.00 | 0.00 | 43 | 1006.0 |
| 20260504230958 | 73 | 269 | 13.0 | 17.0 | 0.00 | 0.00 | 0.00 | 43 | 1006.0 |
| 20260504230455 | 74 | 264 | 5.0 | 7.0 | 0.00 | 0.00 | 0.00 | 42 | 1005.8 |
| 20260504225954 | 73 | 245 | 5.0 | 15.0 | 0.00 | 0.00 | 0.00 | 42 | 1005.9 |